Regional Weather Roundup
Issued by NWS Albany, NY

Home | Current Version | Previous Version | Graphics & Text | Print | Product List | Glossary On
Versions: 1 2 3 4 5 6 7 8 9 10 11 12 13 14 15 16 17 18 19 20 21 22 23 24 25 26 27 28 29 30 31 32 33 34 35 36 37 38 39 40 41 42 43 44 45 46 47 48 49 50
635
ASUS41 KALY 210310
RWRALY

NEW YORK STATE HOURLY WEATHER ROUNDUP
NATIONAL WEATHER SERVICE ALBANY NY
1100 PM EDT WED SEP 20 2017

NOTE: "FAIR" INDICATES FEW OR NO CLOUDS BELOW 12,000 FEET WITH NO
SIGNIFICANT WEATHER AND/OR NO OBSTRUCTIONS TO VISIBILITY.

NYZ032-033-038>043-046>054-057>066-NYZ062>081-082-084-210400-
EAST


CITY           SKY/WX    TMP DP  RH WIND       PRES   REMARKS
ALBANY         CLOUDY    68  63  84 NW5       30.00R
GLENS FALLS    NOT AVBL
POUGHKEEPSIE   CLOUDY    70  63  78 N3        29.95R
NEWBURGH       MOCLDY    72  64  78 NE12      29.98R
MONTGOMERY     CLOUDY    70  64  81 N7        29.97R
WHITE PLAINS   CLOUDY    70  63  78 NW7       29.94R
ISLIP          CLOUDY    73  65  75 N8        29.88S
NEW YORK CITY  CLOUDY    76  65  68 N9        29.92R
CENTRAL PARK   MOCLDY    75  63  66 VRB6      29.96R
$$

NYZ005>009-017-018-044>046-055-056-210400-
CENTRAL


CITY           SKY/WX    TMP DP  RH WIND       PRES   REMARKS
FULTON         CLEAR     64  63  96 CALM      30.04R
SYRACUSE       PTCLDY    66  65  96 W7        30.02R
ROME           PTCLDY    68  65  90 CALM      30.03R
ELMIRA         PTCLDY    61  61 100 SW3       30.05R
BINGHAMTON     PTCLDY    65  61  87 N10       30.06R
MONTICELLO     CLOUDY    66  61  84 NW5       30.04R
$$

NYZ026>034-041>043-087-210400-
NORTH


CITY           SKY/WX    TMP DP  RH WIND       PRES   REMARKS
WATERTOWN      CLEAR     62  62 100 CALM      30.04S
FORT DRUM      NOT AVBL
MASSENA        CLOUDY    61  61 100 CALM      30.06S
SARANAC LAKE   MOCLDY    52  52 100 CALM      30.10R FOG
PLATTSBURGH    PTCLDY    68  63  84 NW9       30.05R
$$

NYZ001>004-010>016-019>021-085-210400-
WEST


CITY           SKY/WX    TMP DP  RH WIND       PRES   REMARKS
NIAGARA FALLS  CLEAR     67  60  78 E3        30.03F
BUFFALO        CLEAR     67  61  81 E6        30.05S
DUNKIRK        CLEAR     62  60  93 CALM      30.04S
JAMESTOWN      CLEAR     67  61  81 E5        30.09S
WELLSVILLE     CLEAR     65  61  87 CALM      30.13R
ROCHESTER      CLEAR     63  61  93 CALM      30.06S
PENN YAN       CLEAR     60  57  89 CALM      30.07R
$$

             KEY
       WCI = WIND CHILL INDEX
       VSB = VISIBILITY
       HX  = HEAT INDEX
$$




USA.gov is the U.S. government's official web portal to all federal, state and local government web resources and services.